Year,Month,Day,Hour,Minute,Value (Times are PST for temperature in C)
2015,07,02,00,00,18.90
2015,07,02,00,01,18.80
2015,07,02,00,02,18.80
2015,07,02,00,03,18.80
2015,07,02,00,04,18.80
2015,07,02,00,05,18.80
2015,07,02,00,06,18.80
2015,07,02,00,07,18.80
2015,07,02,00,08,18.80
2015,07,02,00,09,18.70
2015,07,02,00,10,18.70
2015,07,02,00,11,18.70
2015,07,02,00,12,18.70
2015,07,02,00,13,18.70
2015,07,02,00,14,18.70
2015,07,02,00,15,18.70
2015,07,02,00,16,18.60
2015,07,02,00,17,18.60
2015,07,02,00,18,18.60
2015,07,02,00,19,18.50
2015,07,02,00,20,18.50
2015,07,02,00,21,18.50
2015,07,02,00,22,18.50
2015,07,02,00,23,18.40
2015,07,02,00,24,18.40
2015,07,02,00,25,18.40
2015,07,02,00,26,18.40
2015,07,02,00,27,18.30
2015,07,02,00,28,18.30
2015,07,02,00,29,18.30
2015,07,02,00,30,18.30
2015,07,02,00,31,18.30
2015,07,02,00,32,18.30
2015,07,02,00,33,18.30
2015,07,02,00,34,18.20
2015,07,02,00,35,18.20
2015,07,02,00,36,18.20
2015,07,02,00,37,18.20
2015,07,02,00,38,18.20
2015,07,02,00,39,18.20
2015,07,02,00,40,18.20
2015,07,02,00,41,18.10
2015,07,02,00,42,18.10
2015,07,02,00,43,18.10
2015,07,02,00,44,18.10
2015,07,02,00,45,18.10
2015,07,02,00,46,18.10
2015,07,02,00,47,18.00
2015,07,02,00,48,18.00
2015,07,02,00,49,17.90
2015,07,02,00,50,17.90
2015,07,02,00,51,17.90
2015,07,02,00,52,17.90
2015,07,02,00,53,17.90
2015,07,02,00,54,17.80
2015,07,02,00,55,17.80
2015,07,02,00,56,17.80
2015,07,02,00,57,17.80
2015,07,02,00,58,17.80
2015,07,02,00,59,17.80
2015,07,02,01,00,17.80
2015,07,02,01,01,17.70
2015,07,02,01,02,17.70
2015,07,02,01,03,17.70
2015,07,02,01,04,17.70
2015,07,02,01,05,17.70
2015,07,02,01,06,17.70
2015,07,02,01,07,17.70
2015,07,02,01,08,17.70
2015,07,02,01,09,17.70
2015,07,02,01,10,17.70
2015,07,02,01,11,17.60
2015,07,02,01,12,17.60
2015,07,02,01,13,17.60
2015,07,02,01,14,17.50
2015,07,02,01,15,17.50
2015,07,02,01,16,17.50
2015,07,02,01,17,17.50
2015,07,02,01,18,17.40
2015,07,02,01,19,17.40
2015,07,02,01,20,17.40
2015,07,02,01,21,17.40
2015,07,02,01,22,17.40
2015,07,02,01,23,17.40
2015,07,02,01,24,17.40
2015,07,02,01,25,17.40
2015,07,02,01,26,17.40
2015,07,02,01,27,17.40
2015,07,02,01,28,17.40
2015,07,02,01,29,17.40
2015,07,02,01,30,17.40
2015,07,02,01,31,17.40
2015,07,02,01,32,17.40
2015,07,02,01,33,17.40
2015,07,02,01,34,17.40
2015,07,02,01,35,17.40
2015,07,02,01,36,17.40
2015,07,02,01,37,17.40
2015,07,02,01,38,17.40
2015,07,02,01,39,17.30
2015,07,02,01,40,17.30
2015,07,02,01,41,17.30
2015,07,02,01,42,17.30
2015,07,02,01,43,17.30
2015,07,02,01,44,17.30
2015,07,02,01,45,17.30
2015,07,02,01,46,17.20
2015,07,02,01,47,17.20
2015,07,02,01,48,17.20
2015,07,02,01,49,17.20
2015,07,02,01,50,17.20
2015,07,02,01,51,17.20
2015,07,02,01,52,17.20
2015,07,02,01,53,17.20
2015,07,02,01,54,17.20
2015,07,02,01,55,17.20
2015,07,02,01,56,17.20
2015,07,02,01,57,17.20
2015,07,02,01,58,17.10
2015,07,02,01,59,17.10
2015,07,02,02,00,17.10
2015,07,02,02,01,17.10
2015,07,02,02,02,17.10
2015,07,02,02,03,17.10
2015,07,02,02,04,17.10
2015,07,02,02,05,17.10
2015,07,02,02,06,17.10
2015,07,02,02,07,17.10
2015,07,02,02,08,17.10
2015,07,02,02,09,17.10
2015,07,02,02,10,17.10
2015,07,02,02,11,17.00
2015,07,02,02,12,17.00
2015,07,02,02,13,17.00
2015,07,02,02,14,17.00
2015,07,02,02,15,17.00
2015,07,02,02,16,17.00
2015,07,02,02,17,16.90
2015,07,02,02,18,16.90
2015,07,02,02,19,16.90
2015,07,02,02,20,16.90
2015,07,02,02,21,16.90
2015,07,02,02,22,16.90
2015,07,02,02,23,16.90
2015,07,02,02,24,16.90
2015,07,02,02,25,16.90
2015,07,02,02,26,16.90
2015,07,02,02,27,16.90
2015,07,02,02,28,16.90
2015,07,02,02,29,16.80
2015,07,02,02,30,16.80
2015,07,02,02,31,16.80
2015,07,02,02,32,16.80
2015,07,02,02,33,16.80
2015,07,02,02,34,16.80
2015,07,02,02,35,16.80
2015,07,02,02,36,16.80
2015,07,02,02,37,16.80
2015,07,02,02,38,16.80
2015,07,02,02,39,16.80
2015,07,02,02,40,16.80
2015,07,02,02,41,16.80
2015,07,02,02,42,16.80
2015,07,02,02,43,16.80
2015,07,02,02,44,16.80
2015,07,02,02,45,16.80
2015,07,02,02,46,16.80
2015,07,02,02,47,16.80
2015,07,02,02,48,16.80
2015,07,02,02,49,16.80
2015,07,02,02,50,16.80
2015,07,02,02,51,16.70
2015,07,02,02,52,16.70
2015,07,02,02,53,16.70
2015,07,02,02,54,16.70
2015,07,02,02,55,16.70
2015,07,02,02,56,16.70
2015,07,02,02,57,16.70
2015,07,02,02,58,16.70
2015,07,02,02,59,16.70
2015,07,02,03,00,16.70
2015,07,02,03,01,16.70
2015,07,02,03,02,16.70
2015,07,02,03,03,16.70
2015,07,02,03,04,16.70
2015,07,02,03,05,16.70
2015,07,02,03,06,16.70
2015,07,02,03,07,16.70
2015,07,02,03,08,16.70
2015,07,02,03,09,16.70
2015,07,02,03,10,16.70
2015,07,02,03,11,16.70
2015,07,02,03,12,16.60
2015,07,02,03,13,16.60
2015,07,02,03,14,16.50
2015,07,02,03,15,16.50
2015,07,02,03,16,16.50
2015,07,02,03,17,16.50
2015,07,02,03,18,16.50
2015,07,02,03,19,16.50
2015,07,02,03,20,16.50
2015,07,02,03,21,16.60
2015,07,02,03,22,16.60
2015,07,02,03,23,16.60
2015,07,02,03,24,16.60
2015,07,02,03,25,16.60
2015,07,02,03,26,16.60
2015,07,02,03,27,16.60
2015,07,02,03,28,16.50
2015,07,02,03,29,16.50
2015,07,02,03,30,16.40
2015,07,02,03,31,16.40
2015,07,02,03,32,16.40
2015,07,02,03,33,16.40
2015,07,02,03,34,16.30
2015,07,02,03,35,16.30
2015,07,02,03,36,16.30
2015,07,02,03,37,16.30
2015,07,02,03,38,16.30
2015,07,02,03,39,16.30
2015,07,02,03,40,16.30
2015,07,02,03,41,16.30
2015,07,02,03,42,16.20
2015,07,02,03,43,16.20
2015,07,02,03,44,16.20
2015,07,02,03,45,16.20
2015,07,02,03,46,16.20
2015,07,02,03,47,16.20
2015,07,02,03,48,16.20
2015,07,02,03,49,16.20
2015,07,02,03,50,16.20
2015,07,02,03,51,16.20
2015,07,02,03,52,16.20
2015,07,02,03,53,16.20
2015,07,02,03,54,16.20
2015,07,02,03,55,16.20
2015,07,02,03,56,16.10
2015,07,02,03,57,16.10
2015,07,02,03,58,16.10
2015,07,02,03,59,16.10
2015,07,02,04,00,16.10
2015,07,02,04,01,16.10
2015,07,02,04,02,16.10
2015,07,02,04,03,16.10
2015,07,02,04,04,16.10
2015,07,02,04,05,16.10
2015,07,02,04,06,16.10
2015,07,02,04,07,16.10
2015,07,02,04,08,16.10
2015,07,02,04,09,16.10
2015,07,02,04,10,16.10
2015,07,02,04,11,16.10
2015,07,02,04,12,16.10
2015,07,02,04,13,16.00
2015,07,02,04,14,16.00
2015,07,02,04,15,16.00
2015,07,02,04,16,16.00
2015,07,02,04,17,16.00
2015,07,02,04,18,15.90
2015,07,02,04,19,15.90
2015,07,02,04,20,15.90
2015,07,02,04,21,15.90
2015,07,02,04,22,15.90
2015,07,02,04,23,15.90
2015,07,02,04,24,15.90
2015,07,02,04,25,15.90
2015,07,02,04,26,15.90
2015,07,02,04,27,15.90
2015,07,02,04,28,15.90
2015,07,02,04,29,15.90
2015,07,02,04,30,15.90
2015,07,02,04,31,15.90
2015,07,02,04,32,15.90
2015,07,02,04,33,15.90
2015,07,02,04,34,15.90
2015,07,02,04,35,15.80
2015,07,02,04,36,15.80
2015,07,02,04,37,15.80
2015,07,02,04,38,15.80
2015,07,02,04,39,15.70
2015,07,02,04,40,15.70
2015,07,02,04,41,15.70
2015,07,02,04,42,15.70
2015,07,02,04,43,15.70
2015,07,02,04,44,15.70
2015,07,02,04,45,15.60
2015,07,02,04,46,15.60
2015,07,02,04,47,15.60
2015,07,02,04,48,15.60
2015,07,02,04,49,15.60
2015,07,02,04,50,15.60
2015,07,02,04,51,15.60
2015,07,02,04,52,15.60
2015,07,02,04,53,15.60
2015,07,02,04,54,15.60
2015,07,02,04,55,15.60
2015,07,02,04,56,15.60
2015,07,02,04,57,15.60
2015,07,02,04,58,15.60
2015,07,02,04,59,15.50
2015,07,02,05,00,15.50
2015,07,02,05,01,15.50
2015,07,02,05,02,15.50
2015,07,02,05,03,15.50
2015,07,02,05,04,15.50
2015,07,02,05,05,15.50
2015,07,02,05,06,15.50
2015,07,02,05,07,15.50
2015,07,02,05,08,15.50
2015,07,02,05,09,15.50
2015,07,02,05,10,15.50
2015,07,02,05,11,15.50
2015,07,02,05,12,15.50
2015,07,02,05,13,15.50
2015,07,02,05,14,15.50
2015,07,02,05,15,15.50
2015,07,02,05,16,15.50
2015,07,02,05,17,15.50
2015,07,02,05,18,15.50
2015,07,02,05,19,15.50
2015,07,02,05,20,15.50
2015,07,02,05,21,15.50
2015,07,02,05,22,15.50
2015,07,02,05,23,15.50
2015,07,02,05,24,15.50
2015,07,02,05,25,15.50
2015,07,02,05,26,15.50
2015,07,02,05,27,15.50
2015,07,02,05,28,15.40
2015,07,02,05,29,15.40
2015,07,02,05,30,15.40
2015,07,02,05,31,15.40
2015,07,02,05,32,15.40
2015,07,02,05,33,15.40
2015,07,02,05,34,15.40
2015,07,02,05,35,15.40
2015,07,02,05,36,15.40
2015,07,02,05,37,15.40
2015,07,02,05,38,15.40
2015,07,02,05,39,15.40
2015,07,02,05,40,15.40
2015,07,02,05,41,15.40
2015,07,02,05,42,15.50
2015,07,02,05,43,15.50
2015,07,02,05,44,15.50
2015,07,02,05,45,15.50
2015,07,02,05,46,15.50
2015,07,02,05,47,15.50
2015,07,02,05,48,15.50
2015,07,02,05,49,15.50
2015,07,02,05,50,15.60
2015,07,02,05,51,15.60
2015,07,02,05,52,15.60
2015,07,02,05,53,15.60
2015,07,02,05,54,15.60
2015,07,02,05,55,15.60
2015,07,02,05,56,15.60
2015,07,02,05,57,15.70
2015,07,02,05,58,15.70
2015,07,02,05,59,15.80
2015,07,02,06,00,15.90
2015,07,02,06,01,16.00
2015,07,02,06,02,16.10
2015,07,02,06,03,16.10
2015,07,02,06,04,16.20
2015,07,02,06,05,16.20
2015,07,02,06,06,16.20
2015,07,02,06,07,16.30
2015,07,02,06,08,16.30
2015,07,02,06,09,16.30
2015,07,02,06,10,16.30
2015,07,02,06,11,16.30
2015,07,02,06,12,16.30
2015,07,02,06,13,16.40
2015,07,02,06,14,16.40
2015,07,02,06,15,16.40
2015,07,02,06,16,16.30
2015,07,02,06,17,16.30
2015,07,02,06,18,16.30
2015,07,02,06,19,16.30
2015,07,02,06,20,16.30
2015,07,02,06,21,16.30
2015,07,02,06,22,16.40
2015,07,02,06,23,16.40
2015,07,02,06,24,16.40
2015,07,02,06,25,16.50
2015,07,02,06,26,16.50
2015,07,02,06,27,16.60
2015,07,02,06,28,16.70
2015,07,02,06,29,16.80
2015,07,02,06,30,16.90
2015,07,02,06,31,17.00
2015,07,02,06,32,17.10
2015,07,02,06,33,17.20
2015,07,02,06,34,17.20
2015,07,02,06,35,17.30
2015,07,02,06,36,17.30
2015,07,02,06,37,17.30
2015,07,02,06,38,17.30
2015,07,02,06,39,17.30
2015,07,02,06,40,17.40
2015,07,02,06,41,17.40
2015,07,02,06,42,17.40
2015,07,02,06,43,17.40
2015,07,02,06,44,17.50
2015,07,02,06,45,17.50
2015,07,02,06,46,17.50
2015,07,02,06,47,17.60
2015,07,02,06,48,17.60
2015,07,02,06,49,17.70
2015,07,02,06,50,17.80
2015,07,02,06,51,17.80
2015,07,02,06,52,17.90
2015,07,02,06,53,18.00
2015,07,02,06,54,18.10
2015,07,02,06,55,18.20
2015,07,02,06,56,18.20
2015,07,02,06,57,18.30
2015,07,02,06,58,18.30
2015,07,02,06,59,18.40
2015,07,02,07,00,18.40
2015,07,02,07,01,18.50
2015,07,02,07,02,18.60
2015,07,02,07,03,18.60
2015,07,02,07,04,18.70
2015,07,02,07,05,18.80
2015,07,02,07,06,18.80
2015,07,02,07,07,18.90
2015,07,02,07,08,19.00
2015,07,02,07,09,19.10
2015,07,02,07,10,19.20
2015,07,02,07,11,19.20
2015,07,02,07,12,19.30
2015,07,02,07,13,19.30
2015,07,02,07,14,19.30
2015,07,02,07,15,19.30
2015,07,02,07,16,19.30
2015,07,02,07,17,19.40
2015,07,02,07,18,19.40
2015,07,02,07,19,19.50
2015,07,02,07,20,19.60
2015,07,02,07,21,19.70
2015,07,02,07,22,19.80
2015,07,02,07,23,19.80
2015,07,02,07,24,19.90
2015,07,02,07,25,20.00
2015,07,02,07,26,20.10
2015,07,02,07,27,20.20
2015,07,02,07,28,20.30
2015,07,02,07,29,20.50
2015,07,02,07,30,20.60
2015,07,02,07,31,20.70
2015,07,02,07,32,20.70
2015,07,02,07,33,20.80
2015,07,02,07,34,20.90
2015,07,02,07,35,20.90
2015,07,02,07,36,21.00
2015,07,02,07,37,21.00
2015,07,02,07,38,21.10
2015,07,02,07,39,21.10
2015,07,02,07,40,21.10
2015,07,02,07,41,21.20
2015,07,02,07,42,21.20
2015,07,02,07,43,21.30
2015,07,02,07,44,21.30
2015,07,02,07,45,21.30
2015,07,02,07,46,21.40
2015,07,02,07,47,21.50
2015,07,02,07,48,21.60
2015,07,02,07,49,21.60
2015,07,02,07,50,21.70
2015,07,02,07,51,21.70
2015,07,02,07,52,21.70
2015,07,02,07,53,21.60
2015,07,02,07,54,21.60
2015,07,02,07,55,21.60
2015,07,02,07,56,21.50
2015,07,02,07,57,21.50
2015,07,02,07,58,21.50
2015,07,02,07,59,21.50
2015,07,02,08,00,21.60
2015,07,02,08,01,21.60
2015,07,02,08,02,21.60
2015,07,02,08,03,21.60
2015,07,02,08,04,21.70
2015,07,02,08,05,21.70
2015,07,02,08,06,21.80
2015,07,02,08,07,21.90
2015,07,02,08,08,21.90
2015,07,02,08,09,22.00
2015,07,02,08,10,22.10
2015,07,02,08,11,22.20
2015,07,02,08,12,22.30
2015,07,02,08,13,22.40
2015,07,02,08,14,22.50
2015,07,02,08,15,22.70
2015,07,02,08,16,22.70
2015,07,02,08,17,22.80
2015,07,02,08,18,22.90
2015,07,02,08,19,22.90
2015,07,02,08,20,22.90
2015,07,02,08,21,22.90
2015,07,02,08,22,22.80
2015,07,02,08,23,22.80
2015,07,02,08,24,22.70
2015,07,02,08,25,22.60
2015,07,02,08,26,22.50
2015,07,02,08,27,22.50
2015,07,02,08,28,22.40
2015,07,02,08,29,22.30
2015,07,02,08,30,22.30
2015,07,02,08,31,22.30
2015,07,02,08,32,22.30
2015,07,02,08,33,22.30
2015,07,02,08,34,22.30
2015,07,02,08,35,22.30
2015,07,02,08,36,22.30
2015,07,02,08,37,22.30
2015,07,02,08,38,22.30
2015,07,02,08,39,22.30
2015,07,02,08,40,22.30
2015,07,02,08,41,22.30
2015,07,02,08,42,22.30
2015,07,02,08,43,22.30
2015,07,02,08,44,22.30
2015,07,02,08,45,22.30
2015,07,02,08,46,22.30
2015,07,02,08,47,22.30
2015,07,02,08,48,22.40
2015,07,02,08,49,22.50
2015,07,02,08,50,22.60
2015,07,02,08,51,22.70
2015,07,02,08,52,22.80
2015,07,02,08,53,22.90
2015,07,02,08,54,23.00
2015,07,02,08,55,23.10
2015,07,02,08,56,23.10
2015,07,02,08,57,23.10
2015,07,02,08,58,23.20
2015,07,02,08,59,23.20
2015,07,02,09,00,23.20
2015,07,02,09,01,23.30
2015,07,02,09,02,23.30
2015,07,02,09,03,23.30
2015,07,02,09,04,23.30
2015,07,02,09,05,23.30
2015,07,02,09,06,23.30
2015,07,02,09,07,23.30
2015,07,02,09,08,23.30
2015,07,02,09,09,23.40
2015,07,02,09,10,23.40
2015,07,02,09,11,23.50
2015,07,02,09,12,23.50
2015,07,02,09,13,23.60
2015,07,02,09,14,23.60
2015,07,02,09,15,23.60
2015,07,02,09,16,23.60
2015,07,02,09,17,23.70
2015,07,02,09,18,23.70
2015,07,02,09,19,23.80
2015,07,02,09,20,23.80
2015,07,02,09,21,23.90
2015,07,02,09,22,23.90
2015,07,02,09,23,24.00
2015,07,02,09,24,24.10
2015,07,02,09,25,24.20
2015,07,02,09,26,24.20
2015,07,02,09,27,24.30
2015,07,02,09,28,24.30
2015,07,02,09,29,24.40
2015,07,02,09,30,24.50
2015,07,02,09,31,24.50
2015,07,02,09,32,24.50
2015,07,02,09,33,24.40
2015,07,02,09,34,24.40
2015,07,02,09,35,24.40
2015,07,02,09,36,24.30
2015,07,02,09,37,24.30
2015,07,02,09,38,24.30
2015,07,02,09,39,24.30
2015,07,02,09,40,24.40
2015,07,02,09,41,24.40
2015,07,02,09,42,24.50
2015,07,02,09,43,24.60
2015,07,02,09,44,24.70
2015,07,02,09,45,24.80
2015,07,02,09,46,24.90
2015,07,02,09,47,25.00
2015,07,02,09,48,25.00
2015,07,02,09,49,25.00
2015,07,02,09,50,25.10
2015,07,02,09,51,25.10
2015,07,02,09,52,25.20
2015,07,02,09,53,25.20
2015,07,02,09,54,25.20
2015,07,02,09,55,25.20
2015,07,02,09,56,25.30
2015,07,02,09,57,25.30
2015,07,02,09,58,25.30
2015,07,02,09,59,25.30
2015,07,02,10,00,25.30
2015,07,02,10,01,25.40
2015,07,02,10,02,25.30
2015,07,02,10,03,25.20
2015,07,02,10,04,25.10
2015,07,02,10,05,24.90
2015,07,02,10,06,24.70
2015,07,02,10,07,24.50
2015,07,02,10,08,24.40
2015,07,02,10,09,24.30
2015,07,02,10,10,24.10
2015,07,02,10,11,23.90
2015,07,02,10,12,23.80
2015,07,02,10,13,23.70
2015,07,02,10,14,23.60
2015,07,02,10,15,23.60
2015,07,02,10,16,23.60
2015,07,02,10,17,23.60
2015,07,02,10,18,23.60
2015,07,02,10,19,23.60
2015,07,02,10,20,23.60
2015,07,02,10,21,23.60
2015,07,02,10,22,23.60
2015,07,02,10,23,23.70
2015,07,02,10,24,23.70
2015,07,02,10,25,23.80
2015,07,02,10,26,24.00
2015,07,02,10,27,24.10
2015,07,02,10,28,24.20
2015,07,02,10,29,24.30
2015,07,02,10,30,24.40
2015,07,02,10,31,24.50
2015,07,02,10,32,24.60
2015,07,02,10,33,24.70
2015,07,02,10,34,24.80
2015,07,02,10,35,24.90
2015,07,02,10,36,24.90
2015,07,02,10,37,24.90
2015,07,02,10,38,24.80
2015,07,02,10,39,24.70
2015,07,02,10,40,24.60
2015,07,02,10,41,24.40
2015,07,02,10,42,24.20
2015,07,02,10,43,24.10
2015,07,02,10,44,24.10
2015,07,02,10,45,24.10
2015,07,02,10,46,24.10
2015,07,02,10,47,24.10
2015,07,02,10,48,24.10
2015,07,02,10,49,24.10
2015,07,02,10,50,24.20
2015,07,02,10,51,24.20
2015,07,02,10,52,24.20
2015,07,02,10,53,24.20
2015,07,02,10,54,24.20
2015,07,02,10,55,24.20
2015,07,02,10,56,24.30
2015,07,02,10,57,24.40
2015,07,02,10,58,24.40
2015,07,02,10,59,24.40
2015,07,02,11,00,24.40
2015,07,02,11,01,24.50
2015,07,02,11,02,24.50
2015,07,02,11,03,24.50
2015,07,02,11,04,24.50
2015,07,02,11,05,24.50
2015,07,02,11,06,24.50
2015,07,02,11,07,24.40
2015,07,02,11,08,24.20
2015,07,02,11,09,24.10
2015,07,02,11,10,24.00
2015,07,02,11,11,23.90
2015,07,02,11,12,23.90
2015,07,02,11,13,23.90
2015,07,02,11,14,23.90
2015,07,02,11,15,23.90
2015,07,02,11,16,23.80
2015,07,02,11,17,23.70
2015,07,02,11,18,23.70
2015,07,02,11,19,23.80
2015,07,02,11,20,23.70
2015,07,02,11,21,23.70
2015,07,02,11,22,23.70
2015,07,02,11,23,23.80
2015,07,02,11,24,24.00
2015,07,02,11,25,24.10
2015,07,02,11,26,24.30
2015,07,02,11,27,24.40
2015,07,02,11,28,24.50
2015,07,02,11,29,24.50
2015,07,02,11,30,24.50
2015,07,02,11,31,24.50
2015,07,02,11,32,24.50
2015,07,02,11,33,24.40
2015,07,02,11,34,24.50
2015,07,02,11,35,24.50
2015,07,02,11,36,24.60
2015,07,02,11,37,24.60
2015,07,02,11,38,24.60
2015,07,02,11,39,24.60
2015,07,02,11,40,24.60
2015,07,02,11,41,24.80
2015,07,02,11,42,24.80
2015,07,02,11,43,24.80
2015,07,02,11,44,24.80
2015,07,02,11,45,24.80
2015,07,02,11,46,24.80
2015,07,02,11,47,24.70
2015,07,02,11,48,24.60
2015,07,02,11,49,24.50
2015,07,02,11,50,24.40
2015,07,02,11,51,24.30
2015,07,02,11,52,24.20
2015,07,02,11,53,24.20
2015,07,02,11,54,24.20
2015,07,02,11,55,24.20
2015,07,02,11,56,24.30
2015,07,02,11,57,24.30
2015,07,02,11,58,24.30
2015,07,02,11,59,24.40
2015,07,02,12,00,24.40
2015,07,02,12,01,24.50
2015,07,02,12,02,24.50
2015,07,02,12,03,24.40
2015,07,02,12,04,24.30
2015,07,02,12,05,24.30
2015,07,02,12,06,24.20
2015,07,02,12,07,24.10
2015,07,02,12,08,24.10
2015,07,02,12,09,24.10
2015,07,02,12,10,24.00
2015,07,02,12,11,23.90
2015,07,02,12,12,23.80
2015,07,02,12,13,23.70
2015,07,02,12,14,23.70
2015,07,02,12,15,23.80
2015,07,02,12,16,23.80
2015,07,02,12,17,23.90
2015,07,02,12,18,23.90
2015,07,02,12,19,23.80
2015,07,02,12,20,23.70
2015,07,02,12,21,23.60
2015,07,02,12,22,23.60
2015,07,02,12,23,23.70
2015,07,02,12,24,23.80
2015,07,02,12,25,23.80
2015,07,02,12,26,23.80
2015,07,02,12,27,23.80
2015,07,02,12,28,23.90
2015,07,02,12,29,23.90
2015,07,02,12,30,23.90
2015,07,02,12,31,24.00
2015,07,02,12,32,24.20
2015,07,02,12,33,24.30
2015,07,02,12,34,24.30
2015,07,02,12,35,24.30
2015,07,02,12,36,24.40
2015,07,02,12,37,24.40
2015,07,02,12,38,24.40
2015,07,02,12,39,24.50
2015,07,02,12,40,24.50
2015,07,02,12,41,24.50
2015,07,02,12,42,24.50
2015,07,02,12,43,24.50
2015,07,02,12,44,24.50
2015,07,02,12,45,24.50
2015,07,02,12,46,24.50
2015,07,02,12,47,24.50
2015,07,02,12,48,24.40
2015,07,02,12,49,24.50
2015,07,02,12,50,24.50
2015,07,02,12,51,24.60
2015,07,02,12,52,24.70
2015,07,02,12,53,24.80
2015,07,02,12,54,24.80
2015,07,02,12,55,24.90
2015,07,02,12,56,24.80
2015,07,02,12,57,24.80
2015,07,02,12,58,24.80
2015,07,02,12,59,24.80
2015,07,02,13,00,24.80
2015,07,02,13,01,24.90
2015,07,02,13,02,24.90
2015,07,02,13,03,24.90
2015,07,02,13,04,25.00
2015,07,02,13,05,25.10
2015,07,02,13,06,25.10
2015,07,02,13,07,25.10
2015,07,02,13,08,25.10
2015,07,02,13,09,25.10
2015,07,02,13,10,25.00
2015,07,02,13,11,24.90
2015,07,02,13,12,24.90
2015,07,02,13,13,25.00
2015,07,02,13,14,25.10
2015,07,02,13,15,25.20
2015,07,02,13,16,25.20
2015,07,02,13,17,25.30
2015,07,02,13,18,25.40
2015,07,02,13,19,25.50
2015,07,02,13,20,25.60
2015,07,02,13,21,25.60
2015,07,02,13,22,25.60
2015,07,02,13,23,25.70
2015,07,02,13,24,25.70
2015,07,02,13,25,25.60
2015,07,02,13,26,25.60
2015,07,02,13,27,25.50
2015,07,02,13,28,25.50
2015,07,02,13,29,25.40
2015,07,02,13,30,25.30
2015,07,02,13,31,25.20
2015,07,02,13,32,25.20
2015,07,02,13,33,25.30
2015,07,02,13,34,25.40
2015,07,02,13,35,25.60
2015,07,02,13,36,25.70
2015,07,02,13,37,25.70
2015,07,02,13,38,25.70
2015,07,02,13,39,25.70
2015,07,02,13,40,25.70
2015,07,02,13,41,25.60
2015,07,02,13,42,25.50
2015,07,02,13,43,25.50
2015,07,02,13,44,25.40
2015,07,02,13,45,25.40
2015,07,02,13,46,25.40
2015,07,02,13,47,25.40
2015,07,02,13,48,25.50
2015,07,02,13,49,25.50
2015,07,02,13,50,25.50
2015,07,02,13,51,25.60
2015,07,02,13,52,25.60
2015,07,02,13,53,25.50
2015,07,02,13,54,25.40
2015,07,02,13,55,25.40
2015,07,02,13,56,25.40
2015,07,02,13,57,25.30
2015,07,02,13,58,25.30
2015,07,02,13,59,25.20
2015,07,02,14,00,25.20
2015,07,02,14,01,25.20
2015,07,02,14,02,25.20
2015,07,02,14,03,25.10
2015,07,02,14,04,25.10
2015,07,02,14,05,25.10
2015,07,02,14,06,25.20
2015,07,02,14,07,25.30
2015,07,02,14,08,25.40
2015,07,02,14,09,25.50
2015,07,02,14,10,25.50
2015,07,02,14,11,25.60
2015,07,02,14,12,25.60
2015,07,02,14,13,25.70
2015,07,02,14,14,25.70
2015,07,02,14,15,25.70
2015,07,02,14,16,25.70
2015,07,02,14,17,25.60
2015,07,02,14,18,25.60
2015,07,02,14,19,25.50
2015,07,02,14,20,25.40
2015,07,02,14,21,25.30
2015,07,02,14,22,25.30
2015,07,02,14,23,25.30
2015,07,02,14,24,25.20
2015,07,02,14,25,25.10
2015,07,02,14,26,25.10
2015,07,02,14,27,25.00
2015,07,02,14,28,25.10
2015,07,02,14,29,25.20
2015,07,02,14,30,25.20
2015,07,02,14,31,25.20
2015,07,02,14,32,25.30
2015,07,02,14,33,25.30
2015,07,02,14,34,25.30
2015,07,02,14,35,25.40
2015,07,02,14,36,25.50
2015,07,02,14,37,25.50
2015,07,02,14,38,25.60
2015,07,02,14,39,25.60
2015,07,02,14,40,25.60
2015,07,02,14,41,25.70
2015,07,02,14,42,25.70
2015,07,02,14,43,25.80
2015,07,02,14,44,25.80
2015,07,02,14,45,25.90
2015,07,02,14,46,25.90
2015,07,02,14,47,25.90
2015,07,02,14,48,25.90
2015,07,02,14,49,25.90
2015,07,02,14,50,25.90
2015,07,02,14,51,25.90
2015,07,02,14,52,25.90
2015,07,02,14,53,25.90
2015,07,02,14,54,25.90
2015,07,02,14,55,25.90
2015,07,02,14,56,25.90
2015,07,02,14,57,25.90
2015,07,02,14,58,26.00
2015,07,02,14,59,26.10
2015,07,02,15,00,26.10
2015,07,02,15,01,26.20
2015,07,02,15,02,26.20
2015,07,02,15,03,26.20
2015,07,02,15,04,26.20
2015,07,02,15,05,26.10
2015,07,02,15,06,26.20
2015,07,02,15,07,26.20
2015,07,02,15,08,26.30
2015,07,02,15,09,26.40
2015,07,02,15,10,26.50
2015,07,02,15,11,26.60
2015,07,02,15,12,26.70
2015,07,02,15,13,26.70
2015,07,02,15,14,26.70
2015,07,02,15,15,26.80
2015,07,02,15,16,26.80
2015,07,02,15,17,26.80
2015,07,02,15,18,26.80
2015,07,02,15,19,26.70
2015,07,02,15,20,26.60
2015,07,02,15,21,26.60
2015,07,02,15,22,26.60
2015,07,02,15,23,26.60
2015,07,02,15,24,26.70
2015,07,02,15,25,26.80
2015,07,02,15,26,26.90
2015,07,02,15,27,27.10
2015,07,02,15,28,27.10
2015,07,02,15,29,27.20
2015,07,02,15,30,27.20
2015,07,02,15,31,27.30
2015,07,02,15,32,27.30
2015,07,02,15,33,27.30
2015,07,02,15,34,27.20
2015,07,02,15,35,27.00
2015,07,02,15,36,26.90
2015,07,02,15,37,26.60
2015,07,02,15,38,26.40
2015,07,02,15,39,26.20
2015,07,02,15,40,26.10
2015,07,02,15,41,26.00
2015,07,02,15,42,25.90
2015,07,02,15,43,25.90
2015,07,02,15,44,25.90
2015,07,02,15,45,25.90
2015,07,02,15,46,26.00
2015,07,02,15,47,26.00
2015,07,02,15,48,26.10
2015,07,02,15,49,26.20
2015,07,02,15,50,26.30
2015,07,02,15,51,26.40
2015,07,02,15,52,26.50
2015,07,02,15,53,26.60
2015,07,02,15,54,26.60
2015,07,02,15,55,26.60
2015,07,02,15,56,26.50
2015,07,02,15,57,26.50
2015,07,02,15,58,26.50
2015,07,02,15,59,26.40
2015,07,02,16,00,26.30
2015,07,02,16,01,26.30
2015,07,02,16,02,26.30
2015,07,02,16,03,26.20
2015,07,02,16,04,26.30
2015,07,02,16,05,26.30
2015,07,02,16,06,26.40
2015,07,02,16,07,26.50
2015,07,02,16,08,26.60
2015,07,02,16,09,26.70
2015,07,02,16,10,26.80
2015,07,02,16,11,26.90
2015,07,02,16,12,27.00
2015,07,02,16,13,27.00
2015,07,02,16,14,27.00
2015,07,02,16,15,27.00
2015,07,02,16,16,27.00
2015,07,02,16,17,27.00
2015,07,02,16,18,27.00
2015,07,02,16,19,26.90
2015,07,02,16,20,26.80
2015,07,02,16,21,26.80
2015,07,02,16,22,26.80
2015,07,02,16,23,26.70
2015,07,02,16,24,26.60
2015,07,02,16,25,26.60
2015,07,02,16,26,26.60
2015,07,02,16,27,26.60
2015,07,02,16,28,26.60
2015,07,02,16,29,26.70
2015,07,02,16,30,26.70
2015,07,02,16,31,26.70
2015,07,02,16,32,26.70
2015,07,02,16,33,26.70
2015,07,02,16,34,26.80
2015,07,02,16,35,26.80
2015,07,02,16,36,26.90
2015,07,02,16,37,26.90
2015,07,02,16,38,27.00
2015,07,02,16,39,26.90
2015,07,02,16,40,26.90
2015,07,02,16,41,27.00
2015,07,02,16,42,27.00
2015,07,02,16,43,27.10
2015,07,02,16,44,27.10
2015,07,02,16,45,27.20
2015,07,02,16,46,27.20
2015,07,02,16,47,27.20
2015,07,02,16,48,27.20
2015,07,02,16,49,27.20
2015,07,02,16,50,27.20
2015,07,02,16,51,27.20
2015,07,02,16,52,27.20
2015,07,02,16,53,27.20
2015,07,02,16,54,27.20
2015,07,02,16,55,27.20
2015,07,02,16,56,27.20
2015,07,02,16,57,27.20
2015,07,02,16,58,27.20
2015,07,02,16,59,27.20
2015,07,02,17,00,27.30
2015,07,02,17,01,27.20
2015,07,02,17,02,27.20
2015,07,02,17,03,27.10
2015,07,02,17,04,27.10
2015,07,02,17,05,27.10
2015,07,02,17,06,27.10
2015,07,02,17,07,27.20
2015,07,02,17,08,27.20
2015,07,02,17,09,27.20
2015,07,02,17,10,27.20
2015,07,02,17,11,27.20
2015,07,02,17,12,27.20
2015,07,02,17,13,27.20
2015,07,02,17,14,27.20
2015,07,02,17,15,27.20
2015,07,02,17,16,27.20
2015,07,02,17,17,27.30
2015,07,02,17,18,27.20
2015,07,02,17,19,27.20